Vertical_Velocity
-12 -10 -8 -5 -4 -1 -2 -5 -5 -3 -5 -3 -2 -5 -5 3 2 1 21 -4 -4 11
-7 -4 -1 0 -2 -1 -4 -2 -6 -4 -3 -3 1 -9 1 -4 -1 -2 3 -4 -2 8
-2 -2 -3 -6 -3 -1 2 -4 -6 -3 -2 2 -1 -1 -8 -2 -1 -4 2 4 2 1
-0 -1 -4 -3 1 -4 -2 -3 -6 -3 -2 -5 -6 -4 -0 -2 -2 0 -4 3 -1 5
-3 -3 -1 -2 -2 -1 1 -3 -3 -3 -3 -5 -4 -6 -4 -0 -3 -8 2 8 5 2
-4 -5 -5 -2 -0 -2 -1 -4 -1 -5 -4 -2 -4 -2 -2 -6 -0 4 -6 -7 -1 -1
-5 -2 -4 -5 0 -2 -0 0 -3 -3 -1 0 -2 -1 2 -0 -1 0 -0 -1 0 4
-1 -2 1 -2 4 -3 -2 -0 -2 -3 -1 -1 -2 -5 -3 -0 1 1 -0 -5 -3 -4
0 3 -4 2 -1 -1 -1 1 -2 -2 -1 0 -1 -4 -3 0 3 2 0 1 0 -0
-1 -1 -1 -2 -4 -4 1 -1 1 -1 1 -0 0 -1 -4 -2 -1 1 -1 1 1 1
1 -2 1 -2 -5 -2 3 -1 3 -2 2 1 0 -2 -2 1 0 -1 -0 2 3 5
-3 0 3 -2 -2 -1 0 3 1 -3 1 3 4 1 -1 -1 -1 1 3 -1 -1 -0
-2 1 3 0 -1 1 -1 -1 0 0 -2 -1 4 3 -1 -0 1 0 1 -2 2 3
-1 -1 3 1 2 1 -2 0 0 -1 -3 -2 1 1 2 -2 -1 -0 4 4 8 1
Height
3041 3033 3027 3021 3016 3011 3008 3006 3004 3003 3002 2999 2996 2994 2991 2987 2985 2984 2983 2985 2983 2982
3032 3026 3021 3016 3012 3007 3004 3002 3000 2998 2996 2993 2988 2986 2983 2980 2974 2972 2968 2968 2971 2971
3025 3020 3016 3013 3010 3004 3001 2998 2995 2992 2991 2988 2985 2981 2978 2973 2968 2962 2960 2956 2958 2962
3020 3016 3011 3009 3006 3001 2997 2994 2991 2989 2987 2983 2980 2977 2973 2968 2964 2959 2953 2951 2952 2953
3014 3010 3007 3003 3001 2997 2993 2990 2988 2986 2983 2980 2976 2972 2968 2964 2958 2953 2950 2947 2945 2943
3009 3005 3002 3000 2996 2992 2989 2986 2984 2981 2978 2975 2971 2967 2963 2959 2954 2950 2946 2943 2940 2937
3002 2997 2995 2993 2991 2988 2985 2981 2979 2976 2973 2969 2965 2961 2958 2954 2950 2946 2942 2938 2935 2932
2996 2992 2989 2987 2984 2982 2980 2976 2973 2970 2967 2963 2960 2956 2952 2949 2946 2943 2939 2935 2932 2928
2991 2987 2984 2981 2979 2976 2974 2970 2967 2964 2961 2958 2954 2952 2949 2945 2942 2938 2934 2932 2929 2927
2985 2982 2979 2975 2973 2971 2968 2964 2962 2959 2956 2953 2950 2948 2945 2941 2938 2934 2930 2927 2925 2923
2977 2974 2971 2968 2966 2964 2962 2959 2957 2954 2951 2948 2945 2942 2939 2937 2933 2930 2926 2921 2919 2916
2969 2967 2964 2961 2959 2957 2956 2953 2951 2948 2945 2943 2940 2937 2934 2931 2929 2926 2923 2919 2913 2910
2961 2959 2956 2953 2952 2950 2948 2947 2944 2941 2939 2937 2934 2931 2928 2926 2923 2921 2919 2916 2911 2908
2953 2950 2948 2945 2943 2942 2940 2939 2937 2935 2933 2930 2928 2926 2922 2919 2918 2915 2913 2911 2908 2904